Regional Weather Roundup
Issued by NWS

Home | Current Version | Previous Version | Graphics & Text | Print | Product List | Glossary Off
Versions: 1 2 3 4 5 6 7 8 9 10 11 12 13 14 15 16 17 18 19 20 21 22 23 24 25 26 27 28 29 30 31 32 33 34 35 36 37 38 39 40 41 42 43 44 45 46 47 48 49 50

000
ASUS43 KMKX 020621
RWRWI

WISCONSIN REGIONAL WEATHER ROUNDUP
NATIONAL WEATHER SERVICE MILWAUKEE/SULLIVAN WI
100 AM CDT THU JUL 02 2015

NOTE: "FAIR" INDICATES FEW OR NO CLOUDS BELOW 12,000 FEET WITH NO
SIGNIFICANT WEATHER AND/OR OBSTRUCTIONS TO VISIBILITY.

WIZ001-002-006>008-014>016-023>028-020700-
NORTHWEST WISCONSIN

CITY           SKY/WX    TMP DP  RH WIND       PRES   REMARKS
SUPERIOR ARPT  CLEAR     54  52  92 CALM      30.01F
ASHLAND        CLEAR     49  49 100 CALM      30.02F
6HR MIN TEMP:  47; 6HR MAX TEMP:  67;

HAYWARD        CLEAR     54  52  93 CALM      30.03S
6HR MIN TEMP:  53; 6HR MAX TEMP:  71;

SIREN          NOT AVBL
CUMBERLAND     NOT AVBL
RICE LAKE      CLEAR     54  53  94 CALM      30.03F FOG
6HR MIN TEMP:  54; 6HR MAX TEMP:  72;

CHETEK         NOT AVBL
LADYSMITH      NOT AVBL
EAU CLAIRE     CLEAR     53  50  89 NE3       29.99F
6HR MIN TEMP:  52; 6HR MAX TEMP:  72;

MENOMONIE      NOT AVBL
NEW RICHMOND   NOT AVBL
OSCEOLA        NOT AVBL
$$

WIZ003>005-009-010-017-018-020700-
NORTH CENTRAL WISCONSIN

CITY           SKY/WX    TMP DP  RH WIND       PRES   REMARKS
MANITOWISH WTR NOT AVBL
ARBOR VITAE    CLEAR     49  47  92 CALM      30.05S
6HR MIN TEMP:  49; 6HR MAX TEMP:  67;

WOODRUFF       CLEAR     49  47  92 CALM      30.05S
6HR MIN TEMP:  49; 6HR MAX TEMP:  67;

RHINELANDER    CLEAR     49  46  90 CALM      30.06S
6HR MIN TEMP:  47; 6HR MAX TEMP:  67;

EAGLE RIVER    NOT AVBL
LAND O LAKES   CLEAR     45  44  97 CALM      30.06F
PHILLIPS       NOT AVBL
TOMAHAWK       NOT AVBL
MEDFORD        NOT AVBL
MERRILL        NOT AVBL
$$

WIZ029-030-035-036-043>047-020700-
CENTRAL WISCONSIN

CITY           SKY/WX    TMP DP  RH WIND       PRES   REMARKS
WAUSAU         CLEAR     54  49  83 E5        30.02S
6HR MIN TEMP:  54; 6HR MAX TEMP:  71;

MOSINEE        NOT AVBL
MARSHFIELD     CLEAR     57  45  64 NE5       30.01S
6HR MIN TEMP:  56; 6HR MAX TEMP:  72;

STEVENS POINT  NOT AVBL
WAUPACA        NOT AVBL
WAUTOMA        CLEAR     51  51 100 CALM      30.03R
6HR MIN TEMP:  51; 6HR MAX TEMP:  71;

WISC RAPIDS    CLEAR     54  50  86 CALM      30.02S
6HR MIN TEMP:  51; 6HR MAX TEMP:  72;

CAMP DOUGLAS   CLEAR     46  46 100 SE1       30.00S
6HR MIN TEMP:  46; 6HR MAX TEMP:  69;

$$

WIZ011>013-019>022-031-037>040-048>050-020700-
NORTHEAST WISCONSIN

CITY           SKY/WX    TMP DP  RH WIND       PRES   REMARKS
ANTIGO         CLEAR     51  47  86 E3        30.05F
SHAWANO        NOT AVBL
OCONTO         NOT AVBL
STURGEON BAY   CLEAR     48  45  87 CALM      30.07S
6HR MIN TEMP:  48; 6HR MAX TEMP:  61;

GREEN BAY      CLEAR     51  48  89 CALM      30.04F
6HR MIN TEMP:  50; 6HR MAX TEMP:  68;

MANITOWOC      CLEAR     48  48 100 MISG      30.04S
6HR MIN TEMP:  48; 6HR MAX TEMP:  58;

APPLETON       NOT AVBL
CLINTONVILLE   NOT AVBL
OSHKOSH        CLEAR     55  47  74 CALM      30.03S
6HR MIN TEMP:  54; 6HR MAX TEMP:  66;

$$

WIZ032>034-041-042-053>061-020700-
SOUTHWEST WISCONSIN

CITY           SKY/WX    TMP DP  RH WIND       PRES   REMARKS
LA CROSSE      CLEAR     56  53  90 SE3       29.99F
6HR MIN TEMP:  56; 6HR MAX TEMP:  69;

SPARTA         NOT AVBL
VIROQUA        NOT AVBL
BOSCOBEL       FOG       50  48  93 CALM      30.00F VSB 3/4
6HR MIN TEMP:  49; 6HR MAX TEMP:  67;

PRAIRIE DU CHI NOT AVBL
PLATTEVILLE    NOT AVBL
$$

WIZ056-057-062-063-064-067-068-020700-
SOUTH CENTRAL WISCONSIN

CITY           SKY/WX    TMP DP  RH WIND       PRES   REMARKS
REEDSBURG      NOT AVBL
BARABOO/DELLS  NOT AVBL
LONE ROCK      PTCLDY    51  48  89 CALM      30.02S
6HR MIN TEMP:  50; 6HR MAX TEMP:  68;

MINERAL POINT  NOT AVBL
MADISON        CLEAR     53  49  86 CALM      30.01S
6HR MIN TEMP:  53; 6HR MAX TEMP:  69;

MIDDLETON      NOT AVBL
WATERTOWN      NOT AVBL
MONROE         NOT AVBL
JANESVILLE     NOT AVBL
$$

WIZ051-052-058>065-066-070>072-020700-
SOUTHEAST WISCONSIN

CITY           SKY/WX    TMP DP  RH WIND       PRES   REMARKS
MILWAUKEE      CLEAR     52  47  83 N7        30.02S
6HR MIN TEMP:  52; 6HR MAX TEMP:  57;

WAUKESHA       NOT AVBL
MILWAUKEE/TIMM NOT AVBL
RACINE         CLEAR     53  47  79 N7        30.02F
6HR MIN TEMP:  51; 6HR MAX TEMP:  56;

BURLINGTON     NOT AVBL
KENOSHA        CLEAR     51  48  89 N3        30.01S
6HR MIN TEMP:  51; 6HR MAX TEMP:  56;

FOND DU LAC    CLEAR     52  49  89 CALM      30.03S
6HR MIN TEMP:  52; 6HR MAX TEMP:  67;

SHEBOYGAN      CLEAR     49  48  97 NW3       30.03S
6HR MIN TEMP:  46; 6HR MAX TEMP:  63; 6HR PCP: TRACE;

WEST BEND      NOT AVBL
JUNEAU         NOT AVBL
$$

LSZ147-162-020700-
LAKE SUPERIOR

STATION/POSITION TIME  TEMP    WIND        PRES    WAVE
                       AIR SEA DIR/SP/G            HT/PER
                 (UTC) (F)     (DEG/KT/KT) (MB)    (FT/S)
W MID LAKE BUOY  0550   50 38  190/  6/  6 1016.8F   0
DEVILS ISLAND    0500   61     140/  5/  5 1016.5S
SAXON HARBOR     0540   54     200/  6/  8 1016.3S
$$

LMZ867-665-643>646-020700-
LAKE MICHIGAN

STATION/POSITION TIME  TEMP    WIND        PRES    WAVE
                       AIR SEA DIR/SP/G            HT/PER
                 (UTC) (F)     (DEG/KT/KT) (MB)    (FT/S)
CHAMBERS ISLAND  0500   53      40/  2/  3 1017.6R
S GREEN BAY BUOY 0600   60 68   90/  6/ 10 1018.6
N MID LAKE BUOY  0550   50 42  340/  2/  4 1017.4R   1
NORTHPORT PIER   0500   52      CALM  /  2 1017.3R
SISTER BAY       0514   54     120/  5/  7   N/A
ALGOMA LAKESHORE 0510             CALM       N/A
KEWAUNEE LAKESHO 0500   49     300/  2/  4 1016.5S
SHEBOYGAN LAKESH 0600   55     330/  7/  7 1017.3R
PORT WASHINGTON  0540   54     320/  4/  6 1017.3S
ATWATER BUOY     0600   57     330/  8/ 10 1017.8S
MILWAUKEE LAKESH 0600   56     330/  5/  7   N/A
KENOSHA   LAKESH 0600   57     360/  8/ 12 1015.9S
$$

TC  - TEMPERATURE IN CELSIUS
VSB - VISIBILITY IN STATUTE MILES
WCI - WIND CHILL INDEX
HX  - HEAT INDEX




USA.gov is the U.S. government's official web portal to all federal, state and local government web resources and services.